Terminal Aerodrome Forecast
Issued by NWS Mt. Holly, NJ

Home | Current Version | Previous Version | Text Only | Print | Product List | Glossary On
Versions: 1 2 3 4 5 6 7 8 9 10 11 12 13 14 15 16 17 18 19 20 21 22 23 24
440
FTUS41 KPHI 080846 AAB
TAFACY
TAF AMD
KACY 080846Z 0809/0906 28003KT P6SM BKN150
      TEMPO 0809/0810 5SM BR
     FM081600 29011G20KT P6SM SCT060
     FM090000 29009KT P6SM FEW100=

USA.gov is the U.S. government's official web portal to all federal, state and local government web resources and services.